Weather reports worldwide

Advertisment
Wainfleet, United Kingdom (3392): temperature & dewpoint: 18.04.2019 08:00:00 - 24.04.2019 08:00:00 (BST)Wainfleet, United Kingdom (3392): temperature -20cm & temperature -100cm: 18.04.2019 08:00:00 - 24.04.2019 08:00:00 (BST)Wainfleet, United Kingdom (3392): wind speed: 18.04.2019 08:00:00 - 24.04.2019 08:00:00 (BST)Wainfleet, United Kingdom (3392): wind direction: 18.04.2019 08:00:00 - 24.04.2019 08:00:00 (BST)Wainfleet, United Kingdom (3392): reduced air pressure: 18.04.2019 08:00:00 - 24.04.2019 08:00:00 (BST)Wainfleet, United Kingdom (3392): visibility: 18.04.2019 08:00:00 - 24.04.2019 08:00:00 (BST)Wainfleet, United Kingdom (3392): precipitation: 18.04.2019 08:00:00 - 24.04.2019 08:00:00 (BST)
Date & Time tt [°C] td [°C] tt -20cm [°C] tt -100cm [°C] ff [km/h] ff [kn] dd ppp [hPa] vv [km] rr [mm]
24.04.2019 08:00:00 10,4 9,6 - - 15 8 E 993,4 4,3 -
24.04.2019 07:00:00 10,0 9,7 - - 16 9 ENE 993,2 5 0,0
24.04.2019 06:00:00 6,2 6,0 - - 9 5 NE 993,5 3,8 0,0
24.04.2019 05:00:00 5,3 5,0 - - 9 5 NNE 993,8 2,7 0,0
24.04.2019 04:00:00 5,7 5,4 - - 16 9 NNE 994,3 3,0 0,0
24.04.2019 03:00:00 6,0 5,6 - - 13 7 N 994,7 3,5 0,0
24.04.2019 02:00:00 6,2 5,7 - - 11 6 NNE 995,1 4,3 0,0
24.04.2019 01:00:00 6,7 6,2 - - 11 6 NNE 995,8 4,5 0,0
24.04.2019 00:00:00 7,3 6,5 - - 15 8 NNE 996,3 6 0,0
23.04.2019 23:00:00 9,1 8,0 - - 13 7 NE 996,9 10 0,0
23.04.2019 22:00:00 9,4 7,9 - - 13 7 NE 997,4 10 0,0
23.04.2019 21:00:00 8,6 7,0 - - 9 5 NE 997,8 10 0,0
23.04.2019 20:00:00 10,3 8,1 - - 11 6 NE 997,9 11 0,0
23.04.2019 19:00:00 11,7 8,4 - - 24 13 ENE 997,9 14 0,0
23.04.2019 18:00:00 13,0 8,9 - - 24 13 ENE 998,0 15 0,0
23.04.2019 17:00:00 13,1 8,3 - - 26 14 ENE 998,2 15 0,0
23.04.2019 16:00:00 12,6 7,9 - - 26 14 ENE 998,7 18 0,0
23.04.2019 15:00:00 12,0 7,9 - - 29 16 ENE 999,1 19 0,0
23.04.2019 14:00:00 12,6 7,7 - - 28 15 ENE 999,6 24 0,0
23.04.2019 13:00:00 12,4 8,7 - - 26 14 ENE 999,9 25 0,0
23.04.2019 12:00:00 11,5 8,1 - - 22 12 E 1000,1 24 0,0
23.04.2019 11:00:00 11,3 7,9 - - 28 15 E 1000,1 24 0,0
23.04.2019 10:00:00 10,8 7,8 10,9 9,7 28 15 E 1000,4 25 0,0
23.04.2019 09:00:00 10,6 8,1 - - 22 12 E 1000,5 26 0,0
23.04.2019 08:00:00 10,5 8,2 - - 22 12 E 1000,5 27 0,0
23.04.2019 07:00:00 9,9 8,1 - - 13 7 ENE 1000,6 22 0,0
23.04.2019 06:00:00 9,4 8,0 - - 21 11 E 1000,5 19 0,0
23.04.2019 05:00:00 9,3 7,9 - - 16 9 ENE 1000,8 17 0,0
23.04.2019 04:00:00 9,6 8,1 - - 15 8 E 1001,2 18 0,0
23.04.2019 03:00:00 9,9 8,3 - - 16 9 E 1001,6 19 0,0
23.04.2019 02:00:00 10,3 8,2 - - 18 10 E 1002,0 20 0,0
23.04.2019 01:00:00 10,7 8,4 - - 18 10 E 1002,4 17 0,0
23.04.2019 00:00:00 11,5 8,5 - - 22 12 E 1002,8 18 0,0
22.04.2019 23:00:00 11,8 8,5 - - 18 10 E 1003,1 15 0,0
22.04.2019 22:00:00 11,8 8,2 - - 21 11 E 1003,5 12 0,0
22.04.2019 21:00:00 11,2 8,3 - - 18 10 E 1003,7 9 0,0
22.04.2019 20:00:00 11,4 8,2 - - 24 13 E 1003,8 8 0,0
22.04.2019 19:00:00 12,1 8,5 - - 26 14 E 1003,9 7 0,0
22.04.2019 18:00:00 13,0 8,9 - - 26 14 E 1004,1 7 0,0
22.04.2019 17:00:00 13,9 8,9 - - 29 16 E 1004,5 8 0,0
22.04.2019 16:00:00 14,6 9,1 - - 31 17 E 1005,0 8 0,0
22.04.2019 15:00:00 15,6 8,7 - - 31 17 E 1005,7 10 0,0
22.04.2019 14:00:00 16,1 7,6 - - 28 15 E 1006,6 13 0,0
22.04.2019 13:00:00 16,3 8,4 - - 26 14 E 1007,2 14 0,0
22.04.2019 12:00:00 15,1 9,7 - - 18 10 ENE 1008,1 12 0,0
22.04.2019 11:00:00 14,4 9,8 - - 16 9 ENE 1008,9 10 0,0
22.04.2019 10:00:00 13,9 10,1 10,7 9,5 11 6 ENE 1009,3 10 0,0
22.04.2019 09:00:00 11,8 9,4 - - 13 7 E 1009,9 8 0,0
22.04.2019 08:00:00 8,3 7,4 - - 9 5 NNE 1010,2 5 0,0
22.04.2019 07:00:00 4,3 3,9 - - 11 6 NNE 1010,5 4,1 0,0
22.04.2019 06:00:00 1,8 1,1 - - 9 5 NNE 1010,8 3,6 0,0
22.04.2019 05:00:00 2,4 1,7 - - 4 2 N 1011,4 2,0 0,0
22.04.2019 04:00:00 3,6 2,4 - - 5 3 NNE 1012,0 3,9 0,0
22.04.2019 03:00:00 6,1 5,0 - - 5 3 E 1012,9 9 0,0
22.04.2019 02:00:00 5,4 4,6 - - 11 6 ESE 1013,6 2,7 0,0
22.04.2019 01:00:00 6,1 5,1 - - 15 8 ESE 1014,3 9 0,0
22.04.2019 00:00:00 8,1 6,9 - - 9 5 ESE 1014,8 13 0,0
21.04.2019 23:00:00 8,7 6,9 - - 13 7 E 1015,1 11 0,0
21.04.2019 22:00:00 9,3 7,4 - - 15 8 E 1015,4 14 0,0
21.04.2019 21:00:00 10,5 7,5 - - 16 9 E 1015,7 17 0,0
21.04.2019 20:00:00 11,8 7,4 - - 21 11 E 1015,7 19 0,0
21.04.2019 19:00:00 13,4 6,7 - - 26 14 E 1016,0 22 0,0
21.04.2019 18:00:00 14,4 5,9 - - 26 14 E 1016,5 30 0,0
21.04.2019 17:00:00 15,3 6,1 - - 29 16 E 1017,3 30 0,0
21.04.2019 16:00:00 16,0 7,2 - - 28 15 E 1018,1 29 0,0
21.04.2019 15:00:00 16,4 7,1 - - 29 16 E 1019,0 30 0,0
21.04.2019 14:00:00 16,4 8,2 - - 24 13 E 1019,8 27 0,0
21.04.2019 13:00:00 17,0 7,9 - - 22 12 E 1020,7 27 0,0
21.04.2019 12:00:00 16,6 8,8 - - 11 6 ENE 1021,6 17 0,0
21.04.2019 11:00:00 16,1 8,7 - - 8 4 E 1022,3 17 0,0
21.04.2019 10:00:00 14,4 8,4 10,4 9,2 9 5 E 1023,1 14 0,0
21.04.2019 09:00:00 12,6 10,7 - - 8 4 ENE 1023,6 8 0,0
21.04.2019 08:00:00 9,3 9,3 - - 8 4 NE 1024,0 4,4 0,0
21.04.2019 07:00:00 2,8 2,7 - - 9 5 NNE 1024,4 0,3 0,0
21.04.2019 06:00:00 1,7 1,5 - - 9 5 N 1024,7 - 0,0
21.04.2019 05:00:00 2,6 2,4 - - 8 4 NE 1025,0 0,1 0,0
21.04.2019 04:00:00 2,8 2,5 - - 8 4 NE 1025,8 2,3 0,0
21.04.2019 03:00:00 4,5 4,2 - - 8 4 ENE 1026,4 2,9 0,0
21.04.2019 02:00:00 4,1 3,8 - - 8 4 NE 1027,0 2,9 0,0
21.04.2019 01:00:00 4,0 3,6 - - 8 4 NE 1027,6 2,6 0,0
21.04.2019 00:00:00 4,4 3,9 - - 9 5 NNE 1028,2 2,9 0,0
20.04.2019 23:00:00 4,9 4,3 - - 9 5 NE 1028,7 3,2 0,0
20.04.2019 22:00:00 6,1 5,2 - - 9 5 NE 1029,0 4,4 0,0
20.04.2019 21:00:00 6,9 5,5 - - 9 5 NNE 1029,1 9 0,0
20.04.2019 20:00:00 9,6 7,6 - - 13 7 ENE 1029,0 9 0,0
20.04.2019 19:00:00 12,5 8,3 - - 13 7 NE 1029,2 13 0,0
20.04.2019 18:00:00 14,0 8,5 - - 15 8 NE 1029,5 14 0,0
20.04.2019 17:00:00 14,7 9,5 - - 15 8 NE 1029,9 13 0,0
20.04.2019 16:00:00 16,3 9,3 - - 15 8 NE 1030,3 15 0,0
20.04.2019 15:00:00 16,8 9,7 - - 15 8 NE 1030,8 17 0,0
20.04.2019 14:00:00 16,6 9,9 - - 16 9 ENE 1031,3 17 0,0
20.04.2019 13:00:00 16,5 9,6 - - 16 9 NNE 1031,8 16 0,0
20.04.2019 12:00:00 17,1 9,6 - - 15 8 NE 1032,0 18 0,0
20.04.2019 11:00:00 16,0 9,3 - - 15 8 NNE 1032,1 17 0,0
20.04.2019 10:00:00 13,6 10,0 10,0 9,2 13 7 NE 1032,0 13 0,0
20.04.2019 09:00:00 10,4 10,0 - - 15 8 NNE 1032,2 10 0,0
20.04.2019 08:00:00 7,6 7,5 - - 15 8 N 1032,2 5 0,0
20.04.2019 07:00:00 4,8 4,7 - - 9 5 NNE 1032,2 0,2 0,0
20.04.2019 06:00:00 4,0 3,9 - - 13 7 N 1031,9 0,2 0,2
20.04.2019 05:00:00 5,1 5,0 - - 13 7 N 1031,9 0,3 0,0
20.04.2019 04:00:00 4,6 4,4 - - 15 8 N 1032,1 0,2 0,0
20.04.2019 03:00:00 4,5 4,3 - - 8 4 N 1032,2 0,6 0,0
20.04.2019 02:00:00 4,4 4,1 - - 11 6 NNW 1032,2 1,1 0,0
20.04.2019 01:00:00 5,0 4,7 - - 13 7 NNE 1032,3 1,8 0,0
20.04.2019 00:00:00 5,0 4,5 - - 9 5 N 1032,5 2,4 0,0
19.04.2019 23:00:00 5,7 5,2 - - 13 7 NNE 1032,4 3,5 0,0
19.04.2019 22:00:00 6,7 6,1 - - 13 7 N 1032,4 5 0,0
19.04.2019 21:00:00 6,9 5,9 - - 11 6 NNE 1032,0 8 0,0
19.04.2019 20:00:00 9,0 7,2 - - 11 6 NE 1031,5 10 0,0
19.04.2019 19:00:00 11,3 7,7 - - 11 6 NE 1031,2 15 0,0
19.04.2019 18:00:00 12,5 8,1 - - 16 9 NE 1030,9 16 0,0
19.04.2019 17:00:00 14,2 8,9 - - 15 8 NE 1030,9 16 0,0
19.04.2019 16:00:00 14,3 8,0 - - 21 11 ENE 1031,0 19 0,0
19.04.2019 15:00:00 14,6 8,0 - - 18 10 NE 1031,0 19 0,0
19.04.2019 14:00:00 14,8 8,5 - - 18 10 ENE 1031,0 19 0,0
19.04.2019 13:00:00 14,4 8,8 - - 16 9 ENE 1030,8 18 0,0
19.04.2019 12:00:00 13,9 8,2 - - 16 9 ENE 1030,8 19 0,0
19.04.2019 11:00:00 13,7 8,7 - - 13 7 NE 1030,7 16 0,0
19.04.2019 10:00:00 13,2 9,0 9,7 9,0 16 9 ENE 1030,5 14 0,0
19.04.2019 09:00:00 12,0 9,0 - - 16 9 NE 1030,2 12 0,0
19.04.2019 08:00:00 9,6 9,1 - - 15 8 NNE 1030,0 7 0,0
19.04.2019 07:00:00 6,6 6,3 - - 16 9 NNE 1029,6 5 0,0
19.04.2019 06:00:00 5,3 4,9 - - 15 8 NNE 1029,4 3,2 0,0
19.04.2019 05:00:00 5,4 4,9 - - 15 8 NNE 1029,0 3,6 0,0
19.04.2019 04:00:00 5,3 4,8 - - 16 9 NNE 1028,7 3,6 0,0
19.04.2019 03:00:00 5,6 5,0 - - 16 9 NNE 1028,5 3,9 0,0
19.04.2019 02:00:00 5,4 4,7 - - 16 9 NNE 1028,6 4,6 0,0
19.04.2019 01:00:00 5,6 4,7 - - 15 8 NNE 1028,5 5 0,0
19.04.2019 00:00:00 6,5 5,3 - - 15 8 NNE 1028,7 7 0,0
18.04.2019 23:00:00 7,5 6,3 - - 13 7 NE 1028,6 8 0,0
18.04.2019 22:00:00 7,6 6,4 - - 11 6 NE 1028,1 8 0,0
18.04.2019 21:00:00 9,3 7,7 - - 21 11 E 1027,3 8 0,0
18.04.2019 20:00:00 10,0 7,9 - - 22 12 E 1026,7 10 0,0
18.04.2019 19:00:00 10,8 7,9 - - 24 13 E 1026,3 11 0,0
18.04.2019 18:00:00 11,2 7,9 - - 24 13 ENE 1026,0 11 0,0
18.04.2019 17:00:00 11,9 7,9 - - 29 16 ENE 1025,8 13 0,0
18.04.2019 16:00:00 11,9 7,6 - - 35 19 ENE 1025,7 13 0,0
18.04.2019 15:00:00 12,8 7,9 - - 31 17 ENE 1025,9 16 0,0
18.04.2019 14:00:00 13,0 7,8 - - 34 18 E 1025,8 17 0,0
18.04.2019 13:00:00 12,7 7,2 - - 31 17 ENE 1025,7 17 0,0
18.04.2019 12:00:00 13,0 7,4 - - 28 15 ENE 1025,8 19 0,0
18.04.2019 11:00:00 13,0 7,7 - - 26 14 E 1025,7 16 0,0
18.04.2019 10:00:00 12,7 7,8 9,2 8,9 21 11 ENE 1025,9 13 0,0
18.04.2019 09:00:00 12,3 9,9 - - 15 8 NE 1025,7 6 0,0
18.04.2019 08:00:00 9,0 8,8 - - 11 6 N 1025,2 2,1 0,0

tt = temperature
td = dewpoint
tt -20cm = temperature -20cm
tt -100cm = temperature -100cm
ff = wind speed
dd = wind direction
ppp = reduced air pressure
vv = visibility
rr = precipitation

Next stations